TimeCDT,TemperatureF,Dew PointF,Humidity,Sea Level PressureIn,VisibilityMPH,Wind Direction,Wind SpeedMPH,Gust SpeedMPH,PrecipitationIn,Events,Conditions,WindDirDegrees,DateUTC
12:51 AM,70.0,64.9,84,30.05,10.0,NNE,17.3,-,N/A,,Overcast,30,2012-04-17 05:51:00
1:47 AM,69.8,64.4,83,30.04,10.0,NE,19.6,-,N/A,,Partly Cloudy,50,2012-04-17 06:47:00
1:51 AM,69.1,64.0,84,30.04,10.0,NE,16.1,24.2,N/A,,Scattered Clouds,50,2012-04-17 06:51:00
2:05 AM,69.8,64.4,83,30.05,10.0,NE,18.4,23.0,N/A,,Mostly Cloudy,40,2012-04-17 07:05:00
2:46 AM,69.8,64.4,83,30.04,10.0,NE,13.8,-,N/A,,Partly Cloudy,40,2012-04-17 07:46:00
2:51 AM,69.1,64.0,84,30.04,10.0,NNE,13.8,-,N/A,,Partly Cloudy,30,2012-04-17 07:51:00
3:44 AM,68.0,64.4,88,30.05,10.0,NE,12.7,-,N/A,,Mostly Cloudy,40,2012-04-17 08:44:00
3:51 AM,68.0,64.9,90,30.04,10.0,NE,12.7,-,N/A,,Mostly Cloudy,40,2012-04-17 08:51:00
4:48 AM,66.2,64.4,94,30.06,9.0,North,13.8,-,N/A,,Overcast,360,2012-04-17 09:48:00
4:51 AM,66.9,64.0,90,30.06,9.0,North,16.1,-,N/A,,Overcast,10,2012-04-17 09:51:00
5:51 AM,66.9,63.0,87,30.07,8.0,North,17.3,-,N/A,,Overcast,10,2012-04-17 10:51:00
6:51 AM,64.9,62.1,90,30.09,10.0,North,15.0,-,N/A,,Overcast,10,2012-04-17 11:51:00
7:16 AM,64.4,60.8,88,30.12,10.0,North,13.8,-,N/A,,Overcast,360,2012-04-17 12:16:00
7:51 AM,64.0,59.0,84,30.13,10.0,North,16.1,-,N/A,,Mostly Cloudy,10,2012-04-17 12:51:00
8:02 AM,64.4,59.0,83,30.14,10.0,North,15.0,-,N/A,,Overcast,360,2012-04-17 13:02:00
8:51 AM,64.0,57.9,80,30.17,10.0,North,15.0,-,N/A,,Overcast,10,2012-04-17 13:51:00
9:51 AM,66.9,59.0,76,30.17,10.0,NNE,8.1,-,N/A,,Overcast,20,2012-04-17 14:51:00
10:51 AM,71.1,62.1,73,30.19,10.0,NE,9.2,-,N/A,,Mostly Cloudy,40,2012-04-17 15:51:00
11:51 AM,73.9,64.9,73,30.18,10.0,North,6.9,-,N/A,,Scattered Clouds,350,2012-04-17 16:51:00
12:51 PM,79.0,64.9,62,30.16,10.0,NNE,12.7,-,N/A,,Scattered Clouds,30,2012-04-17 17:51:00
1:51 PM,81.0,64.9,58,30.14,10.0,North,10.4,-,N/A,,Scattered Clouds,10,2012-04-17 18:51:00
2:51 PM,82.0,64.0,54,30.12,10.0,North,8.1,-,N/A,,Scattered Clouds,350,2012-04-17 19:51:00
3:51 PM,82.9,63.0,51,30.09,10.0,NNE,10.4,-,N/A,,Scattered Clouds,20,2012-04-17 20:51:00
4:51 PM,82.9,63.0,51,30.08,10.0,ENE,11.5,18.4,N/A,,Scattered Clouds,60,2012-04-17 21:51:00
5:51 PM,82.9,62.1,49,30.07,10.0,NE,11.5,-,N/A,,Scattered Clouds,50,2012-04-17 22:51:00
6:51 PM,81.0,61.0,50,30.06,10.0,ENE,12.7,-,N/A,,Partly Cloudy,70,2012-04-17 23:51:00
7:51 PM,77.0,66.0,69,30.08,10.0,East,9.2,-,N/A,,Partly Cloudy,100,2012-04-18 00:51:00
8:51 PM,73.0,66.9,81,30.09,10.0,ESE,5.8,-,N/A,,Partly Cloudy,110,2012-04-18 01:51:00
9:51 PM,72.0,66.9,84,30.12,10.0,SE,6.9,-,N/A,,Scattered Clouds,130,2012-04-18 02:51:00
10:51 PM,72.0,66.9,84,30.12,10.0,SE,6.9,-,N/A,,Partly Cloudy,130,2012-04-18 03:51:00
11:51 PM,70.0,66.9,90,30.13,10.0,SE,5.8,-,N/A,,Partly Cloudy,130,2012-04-18 04:51:00